Simultaneous Nadir Overpasses (SNOs) Predictions

Prediction of SNOs between GOES-17 and METOP-C Satellite Orbit:

Table of predicted SNOs for the next 14.0 days since TLE Epoch: 7/26/2019
Index Date Time (GOES-17) GOES-17 Lat,Lon METOP-C Lat,Lon Distance(km) Time Diff (sec)
1 07/27/2019 06:31:52 0.00,-137.19 0.32,-135.64 176.78 80
2 07/28/2019 18:53:24 0.00,-137.19 0.70,-140.20 343.13 80
3 07/29/2019 18:30:06 -0.00,-137.18 -0.47,-135.22 224.98 80
4 07/31/2019 06:51:45 0.00,-137.16 -0.61,-139.80 301.51 80
5 08/01/2019 06:28:27 0.01,-137.14 0.55,-134.82 265.98 80
6 08/02/2019 18:49:58 -0.01,-137.13 0.51,-139.37 255.30 80
7 08/03/2019 18:26:39 -0.01,-137.12 -0.65,-134.38 312.06 80
8 08/05/2019 06:48:19 0.01,-137.08 -0.43,-138.97 215.22 80
9 08/06/2019 06:25:00 0.01,-137.06 0.73,-133.98 351.83 80
10 08/07/2019 18:46:31 -0.01,-137.04 0.33,-138.54 170.06 80
11 08/08/2019 18:23:12 -0.01,-137.02 -0.78,-133.54 396.74 80




NCC Satellite Simultaneous Nadir Overpasses (SNOs) Prediction Service
